Location: Arleux
(50.3632°N, 2.8721°E)
Time: 14:41:58
(UTC+00:00)

Cosmos 44 - Pass Details

Date: 15 December 2019
Orbit: 595 x 767 km, 65.1° (Epoch: 22 January)

Event Time Altitude Azimuth Distance (km) Brightness Sun altitude
Exits shadow 06:02:30 19° 257° (WSW) 1,507 4.5 -14.8°
Maximum altitude 06:05:21 42° 319° (NW) 908 3.5 -14.4°
Drops below altitude 10° 06:09:36 10° 31° (NNE) 1,977 5.8 -13.7°
Sets 06:11:56 0° 39° (NE) 2,868 6.7 -13.4°
